| time (UTC) | temp F | wind direction | speed MPH | gust MPH | rain 1hr in | rain 24hr in | rain mn in | humidity % | barometer mb |
| 20260504081702 | 47 | 131 | 2.0 | 2.0 | 0.00 | 0.00 | 0.00 | 97 | 1007.5 |
| 20260504081158 | 46 | 303 | 0.0 | 0.0 | 0.00 | 0.00 | 0.00 | 96 | 1007.6 |
| 20260504080655 | 46 | 303 | 0.0 | 0.0 | 0.00 | 0.00 | 0.00 | 97 | 1007.5 |
| 20260504080152 | 45 | 309 | 0.0 | 0.0 | 0.00 | 0.00 | 0.00 | 97 | 1007.5 |
| 20260504070119 | 47 | 317 | 0.0 | 0.0 | 0.00 | 0.00 | 0.00 | 96 | 1008.0 |
| 20260504050508 | 58 | 308 | 0.0 | 0.0 | 0.00 | 0.00 | 0.00 | 69 | 1008.9 |
| 20260504050004 | 58 | 315 | 0.0 | 0.0 | 0.00 | 0.00 | 0.00 | 68 | 1008.9 |
| 20260504045500 | 58 | 303 | 0.0 | 0.0 | 0.00 | 0.00 | 0.00 | 68 | 1009.2 |
| 20260504044956 | 59 | 301 | 0.0 | 0.0 | 0.00 | 0.00 | 0.00 | 67 | 1008.9 |
| 20260504044454 | 59 | 307 | 0.0 | 0.0 | 0.00 | 0.00 | 0.00 | 67 | 1009.1 |
| 20260504043951 | 59 | 304 | 0.0 | 0.0 | 0.00 | 0.00 | 0.00 | 66 | 1009.1 |
| 20260504043449 | 59 | 307 | 0.0 | 0.0 | 0.00 | 0.00 | 0.00 | 66 | 1009.1 |
| 20260504042946 | 60 | 305 | 0.0 | 0.0 | 0.00 | 0.00 | 0.00 | 65 | 1009.2 |
| 20260504042442 | 60 | 303 | 0.0 | 0.0 | 0.00 | 0.00 | 0.00 | 65 | 1009.4 |
| 20260504041939 | 60 | 305 | 0.0 | 0.0 | 0.00 | 0.00 | 0.00 | 65 | 1009.3 |
| 20260504041435 | 60 | 296 | 0.0 | 0.0 | 0.00 | 0.00 | 0.00 | 64 | 1009.1 |
| 20260504040931 | 60 | 304 | 0.0 | 0.0 | 0.00 | 0.00 | 0.00 | 64 | 1009.3 |
| 20260504040429 | 60 | 348 | 0.0 | 0.0 | 0.00 | 0.00 | 0.00 | 64 | 1009.2 |
| 20260504035925 | 61 | 303 | 0.0 | 0.0 | 0.00 | 0.00 | 0.00 | 63 | 1009.2 |
| 20260504035423 | 61 | 309 | 0.0 | 0.0 | 0.00 | 0.00 | 0.00 | 62 | 1009.3 |
| 20260504034919 | 62 | 301 | 0.0 | 3.0 | 0.00 | 0.00 | 0.00 | 61 | 1009.4 |
| 20260504034417 | 62 | 219 | 3.0 | 4.0 | 0.00 | 0.00 | 0.00 | 61 | 1009.4 |
| 20260504033914 | 62 | 304 | 0.0 | 2.0 | 0.00 | 0.00 | 0.00 | 60 | 1009.5 |
| 20260504033412 | 61 | 225 | 1.0 | 4.0 | 0.00 | 0.00 | 0.00 | 62 | 1009.6 |
| 20260504032909 | 62 | 303 | 0.0 | 0.0 | 0.00 | 0.00 | 0.00 | 62 | 1009.6 |
| 20260504032405 | 61 | 303 | 0.0 | 3.0 | 0.00 | 0.00 | 0.00 | 62 | 1009.3 |
| 20260504031902 | 61 | 333 | 0.0 | 1.0 | 0.00 | 0.00 | 0.00 | 62 | 1009.5 |
| 20260504031359 | 61 | 301 | 1.0 | 2.0 | 0.00 | 0.00 | 0.00 | 63 | 1009.6 |
| 20260504030856 | 61 | 307 | 0.0 | 0.0 | 0.00 | 0.00 | 0.00 | 63 | 1009.4 |
| 20260504030353 | 61 | 307 | 0.0 | 0.0 | 0.00 | 0.00 | 0.00 | 63 | 1009.4 |
| 20260504025849 | 62 | 311 | 0.0 | 2.0 | 0.00 | 0.00 | 0.00 | 63 | 1009.6 |
| 20260504025346 | 62 | 291 | 0.0 | 3.0 | 0.00 | 0.00 | 0.00 | 63 | 1009.4 |
| 20260504024843 | 62 | 335 | 0.0 | 0.0 | 0.00 | 0.00 | 0.00 | 63 | 1009.5 |
| 20260504024339 | 62 | 125 | 1.0 | 2.0 | 0.00 | 0.00 | 0.00 | 62 | 1009.6 |
| 20260504023836 | 61 | 306 | 0.0 | 0.0 | 0.00 | 0.00 | 0.00 | 63 | 1009.6 |
| 20260504023333 | 61 | 279 | 2.0 | 3.0 | 0.00 | 0.00 | 0.00 | 63 | 1009.4 |
| 20260504022829 | 61 | 305 | 0.0 | 2.0 | 0.00 | 0.00 | 0.00 | 63 | 1009.5 |
| 20260504022326 | 61 | 302 | 0.0 | 0.0 | 0.00 | 0.00 | 0.00 | 64 | 1009.6 |
| 20260504021822 | 60 | 303 | 0.0 | 0.0 | 0.00 | 0.00 | 0.00 | 64 | 1009.4 |
| 20260504021320 | 60 | 301 | 0.0 | 0.0 | 0.00 | 0.00 | 0.00 | 64 | 1009.4 |
| 20260504020817 | 61 | 302 | 0.0 | 0.0 | 0.00 | 0.00 | 0.00 | 64 | 1009.4 |
| 20260504020313 | 60 | 279 | 0.0 | 0.0 | 0.00 | 0.00 | 0.00 | 63 | 1009.4 |
| 20260504015809 | 60 | 308 | 0.0 | 0.0 | 0.00 | 0.00 | 0.00 | 65 | 1009.4 |
| 20260504015306 | 60 | 310 | 0.0 | 0.0 | 0.00 | 0.00 | 0.00 | 65 | 1009.5 |
| 20260504014802 | 61 | 342 | 1.0 | 2.0 | 0.00 | 0.00 | 0.00 | 63 | 1009.4 |
| 20260504014258 | 61 | 305 | 0.0 | 0.0 | 0.00 | 0.00 | 0.00 | 63 | 1009.5 |
| 20260504013756 | 62 | 304 | 0.0 | 0.0 | 0.00 | 0.00 | 0.00 | 62 | 1009.4 |
| 20260504013253 | 62 | 307 | 0.0 | 0.0 | 0.00 | 0.00 | 0.00 | 61 | 1009.3 |
| 20260504012749 | 62 | 308 | 0.0 | 0.0 | 0.00 | 0.00 | 0.00 | 60 | 1009.4 |
| 20260504012248 | 63 | 314 | 0.0 | 0.0 | 0.00 | 0.00 | 0.00 | 59 | 1009.2 |
| 20260504011744 | 63 | 317 | 0.0 | 0.0 | 0.00 | 0.00 | 0.00 | 58 | 1009.0 |
| 20260504011241 | 64 | 306 | 0.0 | 0.0 | 0.00 | 0.00 | 0.00 | 58 | 1009.0 |
| 20260504010737 | 64 | 298 | 0.0 | 0.0 | 0.00 | 0.00 | 0.00 | 57 | 1009.2 |
| 20260504010233 | 64 | 322 | 0.0 | 0.0 | 0.00 | 0.00 | 0.00 | 56 | 1009.2 |
| 20260504005730 | 65 | 319 | 0.0 | 0.0 | 0.00 | 0.00 | 0.00 | 55 | 1009.0 |
| 20260504005227 | 66 | 266 | 0.0 | 1.0 | 0.00 | 0.00 | 0.00 | 54 | 1009.1 |
| 20260504004724 | 66 | 305 | 0.0 | 0.0 | 0.00 | 0.00 | 0.00 | 54 | 1009.2 |
| 20260504004221 | 66 | 271 | 0.0 | 4.0 | 0.00 | 0.00 | 0.00 | 52 | 1008.9 |
| 20260504003718 | 67 | 2 | 1.0 | 4.0 | 0.00 | 0.00 | 0.00 | 52 | 1009.3 |
| 20260504003215 | 67 | 296 | 0.0 | 4.0 | 0.00 | 0.00 | 0.00 | 53 | 1009.0 |
| 20260504002712 | 67 | 81 | 1.0 | 4.0 | 0.00 | 0.00 | 0.00 | 52 | 1009.0 |
| 20260504002209 | 67 | 289 | 2.0 | 2.0 | 0.00 | 0.00 | 0.00 | 51 | 1009.2 |
| 20260504001707 | 68 | 282 | 0.0 | 3.0 | 0.00 | 0.00 | 0.00 | 51 | 1008.9 |
| 20260504001203 | 68 | 310 | 0.0 | 3.0 | 0.00 | 0.00 | 0.00 | 51 | 1009.1 |
| 20260504000700 | 68 | 304 | 1.0 | 3.0 | 0.00 | 0.00 | 0.00 | 51 | 1009.0 |
| 20260504000157 | 68 | 302 | 2.0 | 4.0 | 0.00 | 0.00 | 0.00 | 51 | 1009.1 |
| 20260503235655 | 68 | 188 | 0.0 | 2.0 | 0.00 | 0.00 | 0.00 | 51 | 1009.2 |
| 20260503235151 | 68 | 271 | 0.0 | 2.0 | 0.00 | 0.00 | 0.00 | 50 | 1009.0 |
| 20260503234650 | 69 | 305 | 0.0 | 1.0 | 0.00 | 0.00 | 0.00 | 50 | 1009.0 |
| 20260503234148 | 69 | 256 | 3.0 | 4.0 | 0.00 | 0.00 | 0.00 | 49 | 1009.2 |
| 20260503233644 | 69 | 127 | 0.0 | 1.0 | 0.00 | 0.00 | 0.00 | 49 | 1009.1 |
| 20260503233140 | 70 | 108 | 0.0 | 2.0 | 0.00 | 0.00 | 0.00 | 48 | 1009.0 |
| 20260503232637 | 70 | 286 | 1.0 | 3.0 | 0.00 | 0.00 | 0.00 | 48 | 1009.2 |
| 20260503232134 | 70 | 272 | 1.0 | 2.0 | 0.00 | 0.00 | 0.00 | 48 | 1009.3 |
| 20260503231632 | 69 | 111 | 3.0 | 6.0 | 0.00 | 0.00 | 0.00 | 48 | 1009.1 |
| 20260503231128 | 69 | 339 | 0.0 | 2.0 | 0.00 | 0.00 | 0.00 | 48 | 1009.1 |
| 20260503230625 | 69 | 326 | 2.0 | 6.0 | 0.00 | 0.00 | 0.00 | 48 | 1009.0 |
| 20260503230123 | 70 | 249 | 0.0 | 3.0 | 0.00 | 0.00 | 0.00 | 47 | 1009.2 |
| 20260503225620 | 70 | 256 | 4.0 | 7.0 | 0.00 | 0.00 | 0.00 | 45 | 1009.5 |
| 20260503225119 | 71 | 298 | 2.0 | 3.0 | 0.00 | 0.00 | 0.00 | 45 | 1009.4 |
| 20260503224617 | 69 | 310 | 0.0 | 4.0 | 0.00 | 0.00 | 0.00 | 46 | 1009.4 |
| 20260503224115 | 69 | 242 | 2.0 | 4.0 | 0.00 | 0.00 | 0.00 | 46 | 1009.4 |
| 20260503223613 | 69 | 292 | 2.0 | 3.0 | 0.00 | 0.00 | 0.00 | 45 | 1009.4 |
| 20260503223108 | 69 | 163 | 2.0 | 6.0 | 0.00 | 0.00 | 0.00 | 45 | 1009.4 |
| 20260503222606 | 69 | 283 | 2.0 | 10.0 | 0.00 | 0.00 | 0.00 | 45 | 1009.5 |
| 20260503222104 | 69 | 12 | 1.0 | 8.0 | 0.00 | 0.00 | 0.00 | 46 | 1009.8 |
| 20260503221602 | 69 | 186 | 0.0 | 3.0 | 0.00 | 0.00 | 0.00 | 45 | 1009.6 |
| 20260503221059 | 69 | 268 | 3.0 | 6.0 | 0.00 | 0.00 | 0.00 | 46 | 1009.9 |
| 20260503220555 | 69 | 147 | 4.0 | 6.0 | 0.00 | 0.00 | 0.00 | 44 | 1009.8 |
| 20260503220052 | 69 | 296 | 2.0 | 9.0 | 0.00 | 0.00 | 0.00 | 44 | 1010.0 |
| 20260503215549 | 69 | 53 | 3.0 | 4.0 | 0.00 | 0.00 | 0.00 | 43 | 1009.8 |
| 20260503215046 | 68 | 145 | 3.0 | 7.0 | 0.00 | 0.00 | 0.00 | 46 | 1010.0 |
| 20260503214544 | 68 | 26 | 1.0 | 9.0 | 0.00 | 0.00 | 0.00 | 45 | 1009.6 |
| 20260503214040 | 68 | 337 | 3.0 | 8.0 | 0.00 | 0.00 | 0.00 | 45 | 1009.5 |
| 20260503213539 | 68 | 256 | 4.0 | 7.0 | 0.00 | 0.00 | 0.00 | 45 | 1009.8 |
| 20260503213035 | 68 | 33 | 2.0 | 8.0 | 0.00 | 0.00 | 0.00 | 45 | 1009.9 |
| 20260503212533 | 69 | 228 | 4.0 | 7.0 | 0.00 | 0.00 | 0.00 | 44 | 1009.8 |
| 20260503212030 | 69 | 235 | 2.0 | 3.0 | 0.00 | 0.00 | 0.00 | 45 | 1010.0 |
| 20260503211527 | 69 | 140 | 6.0 | 11.0 | 0.00 | 0.00 | 0.00 | 44 | 1009.8 |
| 20260503211023 | 68 | 85 | 1.0 | 8.0 | 0.00 | 0.00 | 0.00 | 45 | 1009.8 |
| 20260503210520 | 68 | 185 | 2.0 | 6.0 | 0.00 | 0.00 | 0.00 | 46 | 1009.8 |
| 20260503210015 | 67 | 238 | 2.0 | 7.0 | 0.00 | 0.00 | 0.00 | 44 | 1009.9 |
| 20260503205512 | 68 | 225 | 0.0 | 15.0 | 0.00 | 0.00 | 0.00 | 45 | 1010.1 |
| 20260503205009 | 68 | 288 | 2.0 | 7.0 | 0.00 | 0.00 | 0.00 | 44 | 1010.0 |
| 20260503204506 | 69 | 168 | 6.0 | 9.0 | 0.00 | 0.00 | 0.00 | 41 | 1010.2 |
| 20260503204003 | 69 | 294 | 3.0 | 9.0 | 0.00 | 0.00 | 0.00 | 42 | 1010.4 |
| 20260503203500 | 70 | 189 | 4.0 | 8.0 | 0.00 | 0.00 | 0.00 | 42 | 1010.4 |
| 20260503202956 | 69 | 27 | 3.0 | 6.0 | 0.00 | 0.00 | 0.00 | 43 | 1010.3 |
| 20260503202455 | 68 | 172 | 6.0 | 8.0 | 0.00 | 0.00 | 0.00 | 41 | 1010.2 |
| 20260503201953 | 67 | 55 | 2.0 | 9.0 | 0.00 | 0.00 | 0.00 | 43 | 1010.5 |
| 20260503201450 | 67 | 239 | 6.0 | 9.0 | 0.00 | 0.00 | 0.00 | 43 | 1010.7 |
| 20260503200947 | 66 | 183 | 2.0 | 8.0 | 0.00 | 0.00 | 0.00 | 43 | 1010.5 |
| 20260503200444 | 66 | 159 | 6.0 | 14.0 | 0.00 | 0.00 | 0.00 | 42 | 1010.3 |
| 20260503195940 | 67 | 352 | 7.0 | 18.0 | 0.00 | 0.00 | 0.00 | 42 | 1010.6 |
| 20260503195438 | 68 | 257 | 3.0 | 7.0 | 0.00 | 0.00 | 0.00 | 42 | 1010.5 |
| 20260503194934 | 68 | 189 | 6.0 | 9.0 | 0.00 | 0.00 | 0.00 | 41 | 1010.3 |
| 20260503194431 | 69 | 102 | 6.0 | 14.0 | 0.00 | 0.00 | 0.00 | 39 | 1010.8 |
| 20260503193926 | 70 | 172 | 6.0 | 10.0 | 0.00 | 0.00 | 0.00 | 39 | 1010.7 |
| 20260503193422 | 70 | 187 | 2.0 | 10.0 | 0.00 | 0.00 | 0.00 | 39 | 1010.6 |
| 20260503192918 | 70 | 124 | 2.0 | 7.0 | 0.00 | 0.00 | 0.00 | 42 | 1010.7 |
| 20260503192415 | 69 | 279 | 2.0 | 8.0 | 0.00 | 0.00 | 0.00 | 42 | 1010.9 |
| 20260503191910 | 69 | 92 | 12.0 | 16.0 | 0.00 | 0.00 | 0.00 | 39 | 1011.1 |
| 20260503191408 | 68 | 235 | 4.0 | 10.0 | 0.00 | 0.00 | 0.00 | 40 | 1011.2 |
| 20260503190904 | 68 | 183 | 4.0 | 19.0 | 0.00 | 0.00 | 0.00 | 39 | 1010.8 |
| 20260503190402 | 68 | 120 | 7.0 | 13.0 | 0.00 | 0.00 | 0.00 | 40 | 1010.9 |
| 20260503185858 | 68 | 309 | 3.0 | 6.0 | 0.00 | 0.00 | 0.00 | 40 | 1011.1 |
| 20260503185355 | 68 | 268 | 3.0 | 10.0 | 0.00 | 0.00 | 0.00 | 40 | 1010.9 |
| 20260503184854 | 67 | 302 | 6.0 | 9.0 | 0.00 | 0.00 | 0.00 | 40 | 1011.3 |
| 20260503184350 | 67 | 115 | 6.0 | 18.0 | 0.00 | 0.00 | 0.00 | 40 | 1011.1 |
| 20260503183846 | 66 | 354 | 6.0 | 15.0 | 0.00 | 0.00 | 0.00 | 41 | 1011.4 |
| 20260503183344 | 66 | 106 | 12.0 | 21.0 | 0.00 | 0.00 | 0.00 | 40 | 1011.3 |
| 20260503182841 | 65 | 142 | 12.0 | 19.0 | 0.00 | 0.00 | 0.00 | 41 | 1011.2 |
| 20260503182340 | 65 | 208 | 2.0 | 10.0 | 0.00 | 0.00 | 0.00 | 43 | 1011.6 |
| 20260503181837 | 66 | 125 | 6.0 | 9.0 | 0.00 | 0.00 | 0.00 | 42 | 1011.6 |
| 20260503181334 | 64 | 130 | 7.0 | 14.0 | 0.00 | 0.00 | 0.00 | 43 | 1011.9 |
| 20260503180830 | 64 | 133 | 9.0 | 16.0 | 0.00 | 0.00 | 0.00 | 43 | 1012.2 |
| 20260503180328 | 64 | 198 | 3.0 | 15.0 | 0.00 | 0.00 | 0.00 | 45 | 1011.9 |
| 20260503175824 | 64 | 280 | 3.0 | 11.0 | 0.00 | 0.00 | 0.00 | 45 | 1012.0 |
| 20260503175323 | 65 | 131 | 5.0 | 15.0 | 0.00 | 0.00 | 0.00 | 43 | 1012.3 |
| 20260503174818 | 64 | 94 | 3.0 | 18.0 | 0.00 | 0.00 | 0.00 | 46 | 1012.1 |
| 20260503174316 | 64 | 148 | 4.0 | 14.0 | 0.00 | 0.00 | 0.00 | 48 | 1012.3 |
| 20260503173817 | 62 | 130 | 7.0 | 10.0 | 0.00 | 0.00 | 0.00 | 47 | 1012.6 |
| 20260503173313 | 62 | 268 | 4.0 | 9.0 | 0.00 | 0.00 | 0.00 | 48 | 1012.9 |
| 20260503172810 | 62 | 103 | 9.0 | 14.0 | 0.00 | 0.00 | 0.00 | 47 | 1013.1 |
| 20260503172307 | 62 | 182 | 3.0 | 17.0 | 0.00 | 0.00 | 0.00 | 49 | 1013.3 |
| 20260503171803 | 62 | 263 | 5.0 | 10.0 | 0.00 | 0.00 | 0.00 | 49 | 1013.6 |
| 20260503171300 | 62 | 135 | 2.0 | 9.0 | 0.00 | 0.00 | 0.00 | 49 | 1013.5 |
| 20260503170758 | 62 | 114 | 3.0 | 8.0 | 0.00 | 0.00 | 0.00 | 49 | 1013.9 |
| 20260503170254 | 61 | 208 | 1.0 | 14.0 | 0.00 | 0.00 | 0.00 | 50 | 1013.8 |
| 20260503160217 | 58 | 113 | 2.0 | 6.0 | 0.00 | 0.00 | 0.00 | 54 | 1015.0 |
| 20260503150646 | 58 | 132 | 4.0 | 11.0 | 0.00 | 0.00 | 0.00 | 52 | 1016.3 |
| 20260503150142 | 59 | 148 | 5.0 | 7.0 | 0.00 | 0.00 | 0.00 | 52 | 1016.3 |
| 20260503140107 | 53 | 113 | 2.0 | 4.0 | 0.00 | 0.00 | 0.00 | 65 | 1016.9 |
| 20260503131036 | 50 | 315 | 0.0 | 2.0 | 0.00 | 0.00 | 0.00 | 69 | 1017.5 |
| 20260503130533 | 50 | 115 | 0.0 | 4.0 | 0.00 | 0.00 | 0.00 | 70 | 1017.5 |
| 20260503110424 | 44 | 346 | 0.0 | 1.0 | 0.00 | 0.00 | 0.00 | 76 | 1017.5 |
| 20260503090321 | 44 | 302 | 0.0 | 1.0 | 0.00 | 0.00 | 0.00 | 74 | 1017.9 |